Regional Weather Roundup
Issued by NWS

Home | Current Version | Previous Version | Text Only | Print | Product List | Glossary On
Versions: 1 2 3 4 5 6 7 8 9 10 11 12 13 14 15 16 17 18 19 20 21 22 23 24 25 26 27
000
ASUS45 KCYS 190310
RWRWY

WYOMING REGIONAL WEATHER ROUNDUP
NATIONAL WEATHER SERVICE CHEYENNE WY
900 PM MDT WED OCT 18 2017

NOTE:  "FAIR" INDICATES FEW OR NO CLOUDS BELOW 12,000 FEET
WITH NO SIGNIFICANT WEATHER AND/OR OBSTRUCTIONS TO VISIBILITY.

WYZ001-190400-
YELLOWSTONE NATIONAL PARK

CITY           SKY/WX    TMP DP  RH WIND       PRES   REMARKS
LK YELLOWSTONE   N/A     35  24  64 W3        30.21S
W YELLOWSTONE  NOT AVBL

$$
WYZ002>013-054>058-071-098>099-190400-
NORTHERN WYOMING

CITY           SKY/WX    TMP DP  RH WIND       PRES   REMARKS
JACKSON        FAIR      42  21  43 S3        30.16F
CODY           FAIR      59  24  26 W7        30.01F
GREYBULL       FAIR      57  19  22 E3        29.94S
WORLAND        FAIR      50  24  36 S7        29.95S
SHERIDAN       FAIR      48  30  49 NW3       29.91F
BUFFALO        FAIR      54  13  19 W8        29.96F
GILLETTE       FAIR      50  25  37 S6        29.95S
HULETT         FAIR      63  23  22 S17       29.95F
NEWCASTLE      FAIR      57  23  26 SE12G20   30.02S

$$
WYZ014>020-022>026-101>103-190400-
CENTRAL WYOMING

CITY           SKY/WX    TMP DP  RH WIND       PRES   REMARKS
BIG PINEY      FAIR      38  16  40 N10       30.20S WCI  31
PINEDALE       FAIR      34  19  55 W8        30.21F WCI  27
DUBOIS         FAIR      43  18  36 NW13      30.16S
LANDER         FAIR      54  19  25 NW7       30.05R
RIVERTON       FAIR      52  20  28 NW13      30.06R
CASPER         FAIR      53  14  21 SW13      30.06S
DOUGLAS        FAIR      46  23  40 SW8       30.05F

$$
WYZ021-027>030-104>119-190400-
SOUTHERN WYOMING

CITY           SKY/WX    TMP DP  RH WIND       PRES   REMARKS
EVANSTON       FAIR      52  10  18 SE5       30.22S
KEMMERER       FAIR      43  16  33 N13       30.22S
FORT BRIDGER   FAIR      50   3  15 W9        30.24S
ROCK SPRINGS   FAIR      47   9  21 S7        30.19F
DIXON          FAIR      44  12  26 CALM      30.24S
RAWLINS        FAIR      47  10  22 SW6       30.20S
SARATOGA       FAIR      37  12  35 CALM      30.22S
LARAMIE        FAIR      40  15  36 CALM      30.22S
CHEYENNE       FAIR      52  20  28 S7        30.18S
TORRINGTON     FAIR      51  27  39 CALM      30.07R
PINE BLUFFS    FAIR      46  21  36 S3        30.14F

$$




USA.gov is the U.S. government's official web portal to all federal, state and local government web resources and services.